Location: ???????
(54.6339°N, 39.4245°E)
Time: 16:38:02
(UTC+00:00)

Cosmos 2100 Rocket - Pass Details

Date: 19 May 2025
Orbit: 954 x 1000 km, 82.9° (Epoch: 20 June)

Event Time Altitude Azimuth Distance (km) Brightness Sun altitude
Rises 20:55:10 0° 349° (N) 3,726 8.9 -15.2°
Reaches altitude 10° 20:57:47 10° 354° (N) 2,767 7.8 -15.3°
Maximum altitude 21:04:01 57° 73° (ENE) 1,155 4.5 -15.3°
Enters shadow 21:08:47 17° 147° (SSE) 2,234 5.4 -15.4°
